Regional Weather Roundup
Issued by NWS

Home | Current Version | Previous Version | Graphics & Text | Print | Product List | Glossary Off
Versions: 1 2 3 4 5 6 7 8 9 10 11 12 13 14 15 16 17 18 19 20 21 22 23 24 25 26 27 28 29 30 31 32 33 34 35 36 37 38 39 40 41 42 43 44 45 46 47 48 49 50

000
ASUS43 KMKX 312100
RWRWI

WISCONSIN REGIONAL WEATHER ROUNDUP
NATIONAL WEATHER SERVICE MILWAUKEE/SULLIVAN WI
400 PM CDT FRI OCT 31 2014

NOTE: "FAIR" INDICATES FEW OR NO CLOUDS BELOW 12,000 FEET WITH NO
SIGNIFICANT WEATHER AND/OR OBSTRUCTIONS TO VISIBILITY.

WIZ001-002-006>008-014>016-023>028-312200-
NORTHWEST WISCONSIN

CITY           SKY/WX    TMP DP  RH WIND       PRES   REMARKS
SUPERIOR ARPT  SUNNY     39  18  42 CALM      30.50F
ASHLAND        SUNNY     36  21  54 NE9       30.50F WCI  29
HAYWARD        SUNNY     36  18  48 VRB5      30.47F WCI  32
SIREN          SUNNY     37  17  43 NE3       30.49F
CUMBERLAND     MOSUNNY   36  18  48 N12       30.47F WCI  27
RICE LAKE      SUNNY     38  19  46 NW7       30.49S WCI  33
CHETEK         MOSUNNY   38  18  45 N8        30.47F WCI  32
LADYSMITH      MOSUNNY   37  21  51 NE12G18   30.47S WCI  30
EAU CLAIRE     NOT AVBL
MENOMONIE      NOT AVBL
NEW RICHMOND   SUNNY     38  16  39 NE10      30.49F WCI  32
OSCEOLA        SUNNY     38  19  45 NW8       30.53S WCI  33
$$

WIZ003>005-009-010-017-018-312200-
NORTH CENTRAL WISCONSIN

CITY           SKY/WX    TMP DP  RH WIND       PRES   REMARKS
MANITOWISH WTR CLOUDY    31  22  72 N8        30.42S WCI  23
ARBOR VITAE    CLOUDY    32  25  75 N14       30.41S WCI  22
WOODRUFF       CLOUDY    32  25  75 N14       30.41S WCI  22
RHINELANDER    PTSUNNY   31  21  66 N9        30.40S WCI  23
EAGLE RIVER    MOSUNNY   31  19  62 NE14      30.40R WCI  21
LAND O LAKES   PTSUNNY   31  24  75 N9        30.41S WCI  22
PHILLIPS       CLOUDY    32  19  60 N12G20    30.43S WCI  23
TOMAHAWK       MOSUNNY   34  22  61 N6G17     30.42S WCI  29
MEDFORD        CLOUDY    35  20  54 NW12G22   30.41S WCI  27
MERRILL        CLOUDY    34  21  59 N13G20    30.40R WCI  25
$$

WIZ029-030-035-036-043>047-312200-
CENTRAL WISCONSIN

CITY           SKY/WX    TMP DP  RH WIND       PRES   REMARKS
WAUSAU         PTSUNNY   36  19  50 N14G22    30.39S WCI  27
MOSINEE        PTSUNNY   36  19  51 N16G22    30.41R WCI  26
MARSHFIELD     CLOUDY    37  18  46 NE13G23   30.41R WCI  29
STEVENS POINT  MOSUNNY   35  15  45 N14G23    30.40R WCI  26
WAUPACA        CLOUDY    40  18  40 N16G23    30.38S WCI  31
WAUTOMA        NOT AVBL
WISC RAPIDS    MOSUNNY   38  16  40 N15G31    30.42R WCI  29
CAMP DOUGLAS   NOT AVBL
$$

WIZ011>013-019>022-031-037>040-048>050-312200-
NORTHEAST WISCONSIN

CITY           SKY/WX    TMP DP  RH WIND       PRES   REMARKS
ANTIGO         PTSUNNY   34  20  56 N16G24    30.37S WCI  23
SHAWANO        CLOUDY    39  21  48 N16G22    30.38R WCI  30
OCONTO         PTSUNNY   36  19  49 N17G24    30.36R WCI  26
STURGEON BAY   CLOUDY    36  21  55 N28G33    30.34R WCI  23
GREEN BAY      PTSUNNY   38  22  52 N21G26    30.36R WCI  28
MANITOWOC      NOT AVBL
APPLETON       PTSUNNY   37  19  48 N21G31    30.35R WCI  27
CLINTONVILLE   PTSUNNY   36  19  51 N16G23    30.37R WCI  26
OSHKOSH        MOSUNNY   37  19  48 N22       30.34R WCI  26
$$

WIZ032>034-041-042-053>061-312200-
SOUTHWEST WISCONSIN

CITY           SKY/WX    TMP DP  RH WIND       PRES   REMARKS
LA CROSSE      PTSUNNY   44  19  36 N13       30.44R
SPARTA         MOSUNNY   42  15  33 N21       30.43R
VIROQUA        MOSUNNY   39  19  44 N14G22    30.39R WCI  31
BOSCOBEL       MOSUNNY   43  17  35 N13G22    30.41R
PRAIRIE DU CHI MOSUNNY   40  16  37 NW15      30.41R WCI  32
PLATTEVILLE    MOSUNNY   41  18  40 N18G25    30.36S
$$

WIZ056-057-062-063-064-067-068-312200-
SOUTH CENTRAL WISCONSIN

CITY           SKY/WX    TMP DP  RH WIND       PRES   REMARKS
REEDSBURG      MOSUNNY   37  19  48 N16       30.37S WCI  27
BARABOO/DELLS  PTSUNNY   38  16  40 N14G21    30.37R WCI  30
LONE ROCK      NOT AVBL
MINERAL POINT  PTSUNNY   41  16  36 N14G22    30.35R
MADISON        PTSUNNY   40  18  41 N21G26    30.36R WCI  30
MIDDLETON      MOSUNNY   40  15  36 N22G32    30.35S WCI  31
WATERTOWN      PTSUNNY   37  21  52 N16G25    30.31S WCI  28
MONROE         MOSUNNY   37  21  52 N18G31    30.32R WCI  27
JANESVILLE     MOSUNNY   39  18  41 N23G29    30.30S WCI  29
$$

WIZ051-052-058>065-066-070>072-312200-
SOUTHEAST WISCONSIN

CITY           SKY/WX    TMP DP  RH WIND       PRES   REMARKS
MILWAUKEE      CLOUDY    37  21  52 N26G39    30.28R WCI  25
WAUKESHA       PTSUNNY   36  19  51 N18G29    30.28S WCI  25
MILWAUKEE/TIMM CLOUDY    37  19  48 N20G33    30.30R WCI  27
RACINE         CLOUDY    38  22  52 N26G41    30.27R WCI  26
BURLINGTON     CLOUDY    37  19  47 N23G32    30.27S WCI  26
KENOSHA        CLOUDY    38  21  50 N23G30    30.26R WCI  27
FOND DU LAC    CLOUDY    39  18  42 N24G32    30.35R WCI  28
SHEBOYGAN      CLOUDY    37  19  48 N20G32    30.31R WCI  27
WEST BEND      CLOUDY    36  19  51 N18G32    30.30R WCI  25
JUNEAU         MOSUNNY   38  18  44 N16G31    30.32S WCI  29
$$

LSZ147-162-312200-
LAKE SUPERIOR

STATION/POSITION TIME  TEMP    WIND        PRES    WAVE
                       AIR SEA DIR/SP/G            HT/PER
                 (UTC) (F)     (DEG/KT/KT) (MB)    (FT/S)
W MID LAKE BUOY  1950   34 43  330/  8/ 12 1033.3F   5/ 7
DEVILS ISLAND    2000   34      10/  8/  9 1034.0F
PORT WING        2000   38      50/  3/  5 1033.2
SAXON HARBOR     2000   36      10/ 10/ 16 1032.5F
$$

LMZ867-665-643>646-312200-
LAKE MICHIGAN

STATION/POSITION TIME  TEMP    WIND        PRES    WAVE
                       AIR SEA DIR/SP/G            HT/PER
                 (UTC) (F)     (DEG/KT/KT) (MB)    (FT/S)
CHAMBERS ISLAND  2000   37     340/ 24/ 30 1027.1R
N MID LAKE BUOY  1950   36 48  350/ 29/ 37 1025.7R   8/ 7
NORTHPORT PIER   2000   37     350/ 27     1027.1R
SISTER BAY       2013          360/ 29/ 43   N/A
KEWAUNEE LAKESHO 2000   36     350/ 20/ 31 1025.3R
SHEBOYGAN LAKESH 2000   38 48  350/ 30/ 33 1026.6R
PORT WASHINGTON  2030   38     360/ 14/ 25 1026.4R
ATWATER BUOY     2000   37     350/ 29     1024.9R
MILWAUKEE LAKESH 2000   38     340/ 22/ 30   N/A
S MID LAKE BUOY  1950   40 47  350/ 35/ 43 1020.6R  17/10
KENOSHA   LAKESH 2000   39     340/ 32/ 41 1022.7R
$$

TC  - TEMPERATURE IN CELSIUS
VSB - VISIBILITY IN STATUTE MILES
WCI - WIND CHILL INDEX
HX  - HEAT INDEX




USA.gov is the U.S. government's official web portal to all federal, state and local government web resources and services.